Preview of NWS' New Version of Forecast
This preview is not operational and should not be used for support decisions.

Regional Weather Roundup (RWR)

Issued by National Weather Service (NWS)

                            
000
ASUS42 KTBW 150818
RWRFL 
FLORIDA REGIONAL WEATHER ROUNDUP
NATIONAL WEATHER SERVICE TAMPA BAY RUSKIN FL
400 AM EDT SUN SEP 15 2019

NOTE: "FAIR" INDICATES FEW OR NO CLOUDS BELOW 12,000 FEET WITH NO
SIGNIFICANT WEATHER AND/OR OBSTRUCTIONS TO VISIBILITY.

FLZ001>010-012>015-112-114-115-150900-
PANHANDLE FLORIDA
  
CITY           SKY/WX    TMP DP  RH WIND       PRES   REMARKS
PENSACOLA      FAIR      81  72  74 E7        30.03F                  
PENSACOLA NAS  FAIR      82  72  71 E9        30.02F                  
MILTON NAS     FAIR      75  32  20 NE5       30.05S                  
CRESTVIEW      FAIR      76  69  79 CALM      30.06F                  
DUKE FIELD     FAIR      75  69  81 N3        30.04S                  
VALPARAISO     FAIR      80  69  68 E5        30.03S                  
TRI COUNTY     FAIR      75  70  84 N5        30.06S                  
PANAMA CITY    FAIR      77  70  79 NE7       30.02F                  
TYNDALL AFB    FAIR      77  70  79 NE5       30.02F                  
APALACHICOLA   FAIR      76  69  79 NE7       30.01S                  

STATION/POSITION SKY/WX   TEMP    WIND        PRES    WAVE   SWELL
                          AIR SEA DIR/SP/G            HT/PER HT/PER
                          (F)     (DEG/KT/KT) (MB)    (FT/S) (FT/S)
30.1N   87.6W              85 86   80/ 17/ 23 1016.3F   5/ 6
29.2N   88.2W              86      60/ 14/ 16 1015.5F   4/ 7   3/ 7
28.8N   86.0W                 85   90/ 19/ 25 1014.8S   5/ 6
PANAMA CITY BEAC           80 85   80/  6/ 11 1017.0F
TOWER C                    81      80/ 22/ 24 1015.9F
28.5N   84.5W              83      60/ 16/ 19 1015.0F   6/ 6

$$
FLZ011-016>038-118-127-128-134-139-239-150900-
NORTH FLORIDA
  
CITY           SKY/WX    TMP DP  RH WIND       PRES   REMARKS
MARIANNA       FAIR      74  72  93 NE6       30.04F                  
TALLAHASSEE    FAIR      76  73  91 NE7       30.02F                  
PERRY          FAIR      75  74  96 NE3       30.02S                  
LIVE OAK       CLOUDY    75  75 100 N6        30.00F                  
CROSS CITY       N/A     75  73  92 N5        30.00S                  
LAKE CITY      MOCLDY    72  72 100 N3        30.01F                  
GAINESVILLE    MOCLDY    75  73  93 N6        30.01F                  
WILLISTON      FAIR      75  74  95 N6        29.98F                  
PALATKA        FAIR      75  73  94 NE9       29.96F                  
MAYPORT NAS    CLOUDY    83  75  77 NE20      29.98F                  
JACKSONVILLE   FAIR      80  73  79 NE10      29.98F                  
JAX NAS        FAIR      81  74  79 NE13      29.98F                  
JAX CECIL      FAIR      77  73  88 N6        29.98F                  
FERNANDINA BEA MOCLDY    82  76  82 NE15G21   29.99F                  
ST AUGUSTINE   FAIR     N/A N/A N/A NE15      29.97F                  
PALM COAST     MOCLDY    79  75  87 NE9       29.94F                  

STATION/POSITION SKY/WX   TEMP    WIND        PRES    WAVE   SWELL
                          AIR SEA DIR/SP/G            HT/PER HT/PER
                          (F)     (DEG/KT/KT) (MB)    (FT/S) (FT/S)
SHELL POINT      NOT AVBL
KEATON BEACH               74      30/  6/  8 1016.0F
CEDAR KEY                  77      30/  6/  8 1015.0F
FERNANDINA                 86 83   30/  5/ 12 1016.4F
30.7N   81.3W                 83                N/A     7/ 8   2/11
MAYPORT                    82 83   50/ 18/ 20 1015.9F
31.4N   80.9W              81 83   50/ 17/ 19 1015.9F   6/ 8   3/ 8
ST AUGUSTINE               82 83   30/ 20/ 21 1014.3F

$$
FLZ040-043>046-052-053-057-058-063-144-150900-
INTERIOR CENTRAL FLORIDA
  
CITY           SKY/WX    TMP DP  RH WIND       PRES   REMARKS
OCALA          FAIR      76  75  97 N5        29.97F                  
LEESBURG       FAIR      77  74  90 N7        29.95F                  
SANFORD        FAIR      77  75  93 NW5       29.92F                  
ORLANDO EXEC   FAIR      78  75  90 N6        29.93F                  
ORLANDO INTL   CLOUDY    76  75  97 N8        29.93F                  
KISSIMMEE      FAIR      77  76  96 N6        29.93F                  
WINTER HAVEN   FAIR      78  75  90 N8        29.94F                  
BARTOW         FAIR      77  75  94 NW5       29.93S                  
SEBRING        FAIR      76  75  96 NW6       29.92S                  
OKEECHOBEE       N/A     73  72  94 NW6       29.90F                  

$$
FLZ041-047-054-059-064-141-147-150900-
EAST CENTRAL FLORIDA
  
CITY           SKY/WX    TMP DP  RH WIND       PRES   REMARKS
DAYTONA BEACH  FAIR      81  76  84 NE14      29.92F                  
DELAND         FAIR      75  75 100 N5        29.93F                  
JFK SPACE CTR  CLEAR     76  74  93 N5        29.89F                  
CAPE CANAVERAL   N/A    N/A N/A N/A MISG        N/A                   
PATRICK AFB    FAIR      81  81 100 NW14      29.88F                  
MELBOURNE      MOCLDY    79  76  90 NW9       29.89S                  
VERO BEACH     FAIR      77  74  90 NW6       29.88F                  
FT PIERCE      FAIR      76  73  91 NW6       29.88F                  
STUART         FAIR      77  73  88 W6        29.89F                  

STATION/POSITION SKY/WX   TEMP    WIND        PRES    WAVE   SWELL
                          AIR SEA DIR/SP/G            HT/PER HT/PER
                          (F)     (DEG/KT/KT) (MB)    (FT/S) (FT/S)
28.5N   80.2W              83 84   40/ 14/ 16 1012.1F   9/ 9   7/ 9
28.9N   78.5W              81 82              1008.8F  14/10
TRIDENT PIER               79 84  360/  6/  8 1013.7S
28.4N   80.5W                 83                N/A     4/ 8
27.5N   80.2W                 83                N/A     5/ 8   2/11

$$
FLZ050-056-061-142-242-148-248-149-249-151-251-155-255-
160-260-150900-
WEST CENTRAL FLORIDA
  
CITY           SKY/WX    TMP DP  RH WIND       PRES   REMARKS
CRYSTAL RIVER  FAIR      77  73  88 CALM      29.96F                  
INVERNESS      FAIR      75  75 100 CALM      29.96F                  
BROOKSVILLE    FAIR      76  75  97 N5        29.96F                  
CLEARWATER AIR FAIR      77  73  88 NE5       29.94F                  
ST PETE CLEARW CLOUDY    80  75  84 NE7       29.94F                  
TAMPA INTL     MOCLDY    79  75  87 NE8       29.95F                  
TAMPA EXEC     FAIR      75  75 100 CALM      29.96R                  
PLANT CITY     CLOUDY    77  77 100 CALM      29.96S                  
MACDILL AFB    FAIR      78  74  87 NE3       29.94F                  
PETER O KNIGHT FAIR     N/A N/A N/A N5        29.95S                  
ST PETERSBURG  FAIR      80  76  87 N12       29.92F                  
SARASOTA       FAIR      79  75  87 NE5       29.92F                  
VENICE         FAIR      79  77  94 NE5       29.94F                  

STATION/POSITION SKY/WX   TEMP    WIND        PRES    WAVE   SWELL
                          AIR SEA DIR/SP/G            HT/PER HT/PER
                          (F)     (DEG/KT/KT) (MB)    (FT/S) (FT/S)
27.3N   84.2W                 85                N/A     5/ 6
CLEARWATER BEACH           78 86   40/  7/ 10 1014.3F
MIDDLE TAMPA BAY           80      50/ 13/ 15 1014.2F
VENICE                     78 86   30/  3/  4 1013.5F

$$
FLZ066-069-070-075>078-162-262-165-265-150900-
SOUTHWEST FLORIDA AND KEYS
  
CITY           SKY/WX    TMP DP  RH WIND       PRES   REMARKS
PUNTA GORDA    FAIR      77  77 100 W3        29.95R                  
FT MYERS       FAIR      77  75  93 CALM      29.92F                  
SOUTHWEST INTL FAIR      77  75  93 CALM      29.93S                  
NAPLES         FAIR      79  77  94 CALM      29.92S                  
MARCO ISLAND   FAIR      77  76  96 N3        29.93F                  
IMMOKALEE      FAIR      75  75 100 NW3       29.90S                  
MARATHON       LGT RAIN  82  78  88 N3        29.91F                  
KEY WEST NAS   FAIR      82  79  90 CALM      29.92S                  
KEY WEST INTL  FAIR      84  77  79 SW8       29.92S                  

STATION/POSITION SKY/WX   TEMP    WIND        PRES    WAVE   SWELL
                          AIR SEA DIR/SP/G            HT/PER HT/PER
                          (F)     (DEG/KT/KT) (MB)    (FT/S) (FT/S)
NAPLES                     79 85   30/  1/  1 1013.2F
26.0N   85.6W              83 85  110/ 12/ 14 1012.1F   6/ 8   5/ 8
DRY TORTUGAS               84     140/  3/  4 1013.2F
SOMBRERO KEY               84     220/  3/  5 1013.0
LONG KEY                   83                 1011.9

$$
FLZ067-068-071>074-168-172>174-150900-
SOUTHEAST FLORIDA 
  
CITY           SKY/WX    TMP DP  RH WIND       PRES   REMARKS
W PALM BEACH   MOCLDY    77  75  93 NW7       29.89S                  
FT LAUDER-EXEC FAIR      77  75  93 W6        29.89S                  
FT LAUDERDALE  FAIR      79  76  90 W6        29.89S                  
POMPANO BEACH  FAIR      79  75  87 W7        29.89S                  
PEMBROKE PINES FAIR      79  76  90 W3        29.91S                  
OPA LOCKA      FAIR      79  77  94 W5        29.91S                  
MIAMI          FAIR      79  76  90 W3        29.90F                  
WEST KENDALL   MOCLDY    77  77 100 W3        29.91S                  
HOMESTEAD      MOCLDY    78  76  96 W3        29.90F                  

STATION/POSITION SKY/WX   TEMP    WIND        PRES    WAVE   SWELL
                          AIR SEA DIR/SP/G            HT/PER HT/PER
                          (F)     (DEG/KT/KT) (MB)    (FT/S) (FT/S)
VIRGINIA KEY               80 86  260/  4/  5 1012.2F
LAKE WORTH                 78 85  310/  7/ 10 1013.0F
FOWEY ROCKS                80 84  300/  8/  8 1012.7F
SETTLEMENT POINT           83     300/ 17/ 19 1010.7F

$$